Location: Home
(51.5204°N, 2.5456°W)
Time: 15:46:49
(UTC+00:00)

ISS - Visible Passes

Search period start: 11 December 2018 00:00
Search period end: 21 December 2018 00:00
Orbit: 401 x 408 km, 51.6° (Epoch: 12 December)

Date Brightness Start Highest point End Pass type
(mag) Time Alt. Az. Time Alt. Az. Time Alt. Az.
11 Dec -2.4 17:11:40 10° W 17:14:45 39° SSW 17:17:49 10° SE visible
12 Dec -0.8 17:56:37 10° WSW 17:58:37 15° SW 18:00:36 10° S visible
13 Dec -1.2 17:03:57 10° W 17:06:37 23° SSW 17:09:16 10° SSE visible
15 Dec -0.4 16:56:43 10° WSW 16:58:18 13° SW 16:59:54 10° SSW visible
